Terug naar catalogus

CZ-4 DEB

ActiefPO
NORAD 35381·DEBRIS·🇨🇳 China

Gelanceerd Oct 21, 2003 vanaf Taiyuan Satellite Launch Center

Loading…

Volgende Passages (komende 24 uur)

TLE

VersSource: Space-Track

Epoch: Sep 13, 2026, 02:42 UTC

1 35381U 03049H   26256.11252252  .00089844  00000-0  16057-2 0  9991
2 35381  98.5962 133.6827 0016186 223.1834 136.8145 15.49557704212905

Volg CZ-4 DEB in realtime met AllMySat

Download on the App Store